Regional Weather Roundup
Issued by NWS

Home | Current Version | Previous Version | Graphics & Text | Print | Product List | Glossary On
Versions: 1 2 3 4 5 6 7 8 9 10 11 12 13 14 15 16 17 18 19 20 21 22 23 24 25 26 27 28 29 30 31 32 33 34 35 36 37 38 39 40 41 42 43 44 45 46 47 48 49 50
875
ASUS44 KJAN 152303
RWRMS

MISSISSIPPI HOURLY WEATHER ROUNDUP
NATIONAL WEATHER SERVICE JACKSON MS
600 PM CDT MON SEP 15 2014

NOTE: "FAIR: INDICATES FEW OR NO CLOUDS BELOW 12,000 FEET WITH NO
SIGNIFICANT WEATHER AND/OR OBSTRUCTIONS TO VISIBILITY.

MSZ001>002-007>008-010>013-018>021-025>028-034>036-160000-
NORTHWEST MISSISSIPPI

CITY           SKY/WX    TMP DP  RH WIND       PRES   REMARKS
CLARKSDALE     FAIR      81  64  57 CALM      30.10R
CLEVELAND      FAIR      82  67  61 N6        30.08S
GREENWOOD      CLOUDY    82  68  62 N5        30.08R
GREENVILLE     PTSUNNY   82  66  58 N7        30.08S
GRENADA        FAIR      79  68  69 N3        30.09S
OXFORD         FAIR      77  66  69 CALM      30.12S
TUNICA         CLOUDY    79  63  57 CALM      30.10S
$$

MSZ003>006-009-014>017-022>024-029>033-037>039-160000-
NORTHEAST MISSISSIPPI

CITY           SKY/WX    TMP DP  RH WIND       PRES   REMARKS
COLUMBUS AFB   PTSUNNY   84  68  58 NW7       30.08R
CORINTH        FAIR      81  66  61 CALM      30.09S
GOLDN TRIANGLE MOSUNNY   86  70  58 N6        30.09R HX  90
STARKVILLE     FAIR      82  68  61 CALM      30.08R
TUPELO         CLOUDY    83  66  56 NW3       30.09R
$$

MSZ040-058-160000-
CENTRAL MISSISSIPPI

CITY           SKY/WX    TMP DP  RH WIND       PRES   REMARKS
JACKSON INTL   MOSUNNY   87  71  58 N7        30.06S HX  93
JACKSON HAWKNS PTSUNNY   86  71  60 N5        30.07S HX  91
MERIDIAN KEY   PTSUNNY   86  73  65 E8        30.06R HX  93
MERIDIAN NAS   PTSUNNY   82  73  74 E6        30.07R
RAYMOND        FAIR      84  79  84 CALM      30.06S HX  96
VICKSBURG      PTSUNNY   87  70  56 N7        30.07R HX  92
$$

MSZ059>079-160000-
SOUTH MISSISSIPPI

CITY           SKY/WX    TMP DP  RH WIND       PRES   REMARKS
BROOKHAVEN     FAIR      84  75  74 CALM      30.08R HX  92
HATTIESBURG    MOSUNNY   91  71  51 N5        30.05R HX  97
MCCOMB         MOSUNNY   90  68  48 NE3       30.06R HX  94
NATCHEZ        CLOUDY    84  75  74 N3        30.07R HX  92
PINE BELT      PTSUNNY  N/A N/A N/A N6        30.07S
$$

MSZ080>082-160000-
COASTAL MISSISSIPPI

CITY           SKY/WX    TMP DP  RH WIND       PRES   REMARKS
BAY ST LOUIS   MOSUNNY   86  73  66 S6        30.05S HX  93
BILOXI         PTSUNNY   86  75  69 S8        30.05R HX  94
PASCAGOULA     PTSUNNY   84  77  79 SE7       30.05S HX  94
GULFPORT       PTSUNNY   86  75  69 S6        30.04S HX  95
$$



USA.gov is the U.S. government's official web portal to all federal, state and local government web resources and services.